Temp
75 74 75 76 77 77 77 77 78 78 78 79 78 79 79 77 73 70 71 70 69 68 66 66 67 68 68 68 68 70 73 76 75 74 72 73 68 69 73 72 72 73 76 73 72 68 67 63 64 70 74 74 73 73 74 75 77 75 76 76 77 77 77
76 76 78 78 77 77 76 77 76 78 79 78 79 78 78 77 74 71 70 67 68 68 66 67 68 69 68 68 67 68 70 74 74 74 73 69 70 70 70 68 71 73 74 74 73 72 64 68 65 66 68 72 73 73 72 74 73 75 74 75 76 79 78
75 76 76 76 76 77 76 76 76 77 78 78 77 77 77 78 76 75 72 70 69 67 66 67 68 69 68 69 69 68 69 68 72 73 73 68 70 73 72 70 67 69 72 71 70 70 73 70 69 71 69 67 64 70 72 72 71 77 76 75 78 81 79
73 73 73 74 76 76 75 76 77 77 77 78 77 76 76 77 76 75 72 71 69 67 66 66 67 68 68 68 69 68 67 67 68 69 69 69 75 74 72 72 71 71 69 68 69 71 71 70 69 70 70 73 71 68 71 72 72 77 77 76 77 78 78
73 73 72 72 74 76 76 75 77 77 77 77 77 77 75 76 75 74 74 72 69 67 65 65 67 69 70 70 69 67 67 67 68 68 68 67 73 73 72 73 73 73 71 69 70 72 72 73 72 70 69 73 74 74 74 71 74 76 76 78 79 79 79
73 73 74 74 75 75 76 74 74 73 75 76 76 75 75 75 74 73 72 71 71 69 68 68 69 70 70 70 69 69 67 67 66 68 66 70 72 71 72 73 72 72 70 72 73 71 72 74 74 72 72 72 68 71 75 74 70 79 80 76 78 78 80
72 73 74 74 75 76 76 73 71 69 68 71 75 74 75 75 75 74 73 72 73 73 71 70 70 70 70 69 69 68 68 68 68 66 68 71 70 70 72 72 72 72 71 70 69 70 74 74 72 72 73 74 74 69 73 74 75 73 76 78 79 80 80
71 72 72 73 74 74 73 74 72 69 69 69 72 76 76 75 75 75 74 73 72 72 73 70 70 70 70 71 70 69 70 68 69 68 68 69 68 70 70 72 71 71 70 69 70 74 77 76 75 76 73 67 71 70 67 71 72 72 73 78 79 80 79
69 70 71 73 74 74 73 72 72 71 70 69 68 68 71 74 75 74 74 74 73 73 73 71 70 68 71 71 70 69 67 68 67 69 70 70 69 69 68 69 71 71 72 71 72 71 72 76 78 77 75 73 68 66 70 70 72 74 80 76 79 79 80
67 67 68 70 72 73 73 74 74 73 72 68 68 69 71 69 72 74 74 74 73 73 73 73 73 72 72 71 70 68 68 70 71 72 70 70 68 67 66 67 70 72 71 70 70 70 72 76 76 77 78 75 75 71 67 66 68 71 76 79 75 79 80
67 68 69 70 71 71 73 74 73 74 72 72 69 68 68 69 72 75 74 73 74 73 72 73 73 73 71 69 71 69 70 71 71 71 70 69 67 66 66 68 70 70 72 70 70 72 74 75 77 77 75 75 78 73 71 68 69 73 71 78 78 77 80
68 68 68 68 69 69 70 71 71 69 71 70 69 69 69 71 74 75 75 74 73 73 73 73 71 69 68 66 67 66 70 71 69 68 68 68 68 65 66 67 70 69 70 68 70 70 73 75 76 76 73 77 77 74 72 72 64 70 79 73 77 81 80
70 69 69 67 67 68 69 69 69 70 69 70 67 68 69 73 71 69 72 75 74 74 73 72 70 68 67 66 65 67 73 71 72 69 68 69 70 68 68 67 67 66 69 68 68 70 74 76 76 76 75 75 76 74 72 68 66 67 73 74 76 77 80
68 68 67 67 67 67 67 67 68 68 70 70 71 72 70 73 76 75 72 75 76 75 74 72 72 69 67 67 66 66 72 73 73 72 73 71 70 70 69 67 67 69 72 69 73 72 72 77 76 75 75 74 72 73 71 69 64 68 73 75 76 77 77
69 68 66 66 66 66 67 67 68 69 69 70 72 73 75 72 73 72 74 71 74 76 74 75 73 71 70 68 68 69 70 70 69 71 70 71 70 69 70 67 67 68 71 72 72 74 75 76 77 76 76 74 73 72 72 75 73 69 69 73 73 79 75
68 67 66 66 65 66 66 67 69 68 68 69 71 72 72 73 73 72 68 70 68 67 70 71 72 72 69 70 70 69 70 70 68 67 67 68 70 71 70 70 69 68 67 67 69 70 74 75 76 77 75 75 72 71 76 74 72 70 71 70 73 75 77
67 68 67 66 65 65 67 67 68 68 68 68 69 71 73 72 71 70 68 69 71 69 67 69 72 73 73 68 68 69 71 69 67 68 70 69 70 71 72 71 70 69 67 65 68 69 74 74 71 71 73 74 72 72 74 75 74 71 72 71 74 76 77
66 67 66 66 66 67 67 67 67 67 67 67 69 70 72 72 69 70 71 71 73 73 70 68 67 69 70 68 68 70 69 70 68 69 69 70 69 70 72 72 72 71 68 66 67 69 73 73 74 71 69 71 71 72 73 75 75 74 71 72 73 77 78
67 67 66 66 67 67 67 66 66 66 67 66 66 67 69 70 70 70 70 71 71 71 71 68 67 67 67 68 67 69 73 72 71 69 67 67 68 73 73 73 70 70 69 68 67 70 72 74 75 73 70 70 70 75 74 74 76 75 75 73 73 73 75
66 66 66 66 66 66 67 66 66 66 66 65 65 65 66 67 70 69 68 68 65 67 69 70 69 68 68 67 68 74 72 73 69 68 68 66 69 71 74 74 72 72 72 72 69 70 73 72 72 73 73 72 73 74 72 72 76 74 72 71 73 73 74
66 66 66 67 66 66 66 66 65 65 65 64 64 64 64 64 64 68 69 67 66 66 68 69 70 70 70 68 66 68 71 70 70 70 69 71 70 71 72 72 72 72 73 74 73 73 68 67 70 71 73 71 70 69 72 71 68 71 72 70 71 71 74
66 66 66 66 65 65 65 64 65 64 63 63 62 63 63 62 62 61 63 65 66 65 65 66 67 67 66 67 67 67 67 67 67 68 67 68 68 72 72 71 71 71 71 70 63 64 64 63 68 69 71 70 68 65 68 67 66 66 71 71 62 70 73
65 65 65 64 64 64 65 64 63 63 62 62 62 62 62 61 60 59 59 61 63 66 66 68 65 56 55 62 65 67 68 67 69 71 70 71 72 71 72 71 70 65 63 60 56 52 51 52 56 64 69 70 68 67 64 64 66 67 65 64 62 65 66
64 63 64 64 63 64 64 63 61 61 60 60 59 59 60 59 58 58 57 58 58 61 65 67 56 50 49 49 60 65 64 66 67 66 65 64 71 68 70 71 68 65 63 61 60 50 50 48 48 51 52 59 64 70 69 67 68 67 64 64 62 61 63
62 62 63 63 62 63 62 61 60 59 58 58 58 58 57 57 57 56 55 55 56 58 60 54 46 46 47 47 49 60 65 64 65 67 67 66 67 70 70 70 67 65 65 67 70 62 55 48 46 46 46 47 48 47 50 65 68 65 66 65 62 62 64
61 61 61 62 61 61 61 60 59 58 57 57 57 56 55 54 54 54 53 52 53 55 57 45 43 41 41 41 44 51 64 65 65 65 65 65 66 66 67 66 65 64 66 63 67 70 67 58 48 45 44 44 43 45 46 46 50 66 72 68 68 68 68
60 61 61 61 61 60 59 59 58 58 57 57 55 55 54 53 53 53 52 51 50 51 53 46 41 41 41 40 41 45 60 63 65 65 66 66 65 64 64 64 64 64 64 65 67 68 69 67 62 61 62 66 66 52 44 43 44 46 59 70 68 68 70
59 60 60 60 60 59 59 58 58 57 57 56 54 53 52 52 51 51 51 51 50 49 50 44 41 40 40 40 40 43 57 61 64 64 65 66 66 65 64 65 65 64 65 65 67 68 70 68 68 68 68 68 69 66 67 65 66 68 68 69 69 70 70
58 59 59 59 58 57 57 57 56 57 56 56 56 55 53 53 51 50 50 50 49 47 49 43 41 40 39 39 39 50 57 61 64 65 65 67 64 63 63 63 62 63 62 64 57 52 58 67 69 68 66 67 63 61 55 46 40 42 57 69 71 68 63
58 58 58 58 57 56 55 55 55 56 56 56 55 54 53 52 52 50 49 49 47 46 47 45 41 40 39 39 42 54 58 61 63 65 66 65 65 63 59 63 63 62 65 67 53 48 49 53 68 65 65 64 65 63 60 55 44 41 41 41 40 41 42
59 58 58 57 57 57 57 56 55 55 54 55 55 54 54 54 53 51 49 48 47 45 45 45 41 39 38 39 41 49 54 58 61 61 61 61 60 54 52 49 59 63 61 61 46 49 48 60 69 64 66 66 63 60 58 59 57 52 43 43 42 42 44
60 59 58 58 58 57 56 56 56 56 55 55 54 55 54 54 53 51 50 48 47 45 45 45 42 39 38 39 42 51 54 58 60 59 59 57 57 55 52 50 45 51 58 49 43 46 44 56 72 70 69 66 62 60 59 61 59 58 60 59 59 59 57
60 60 60 60 60 59 58 58 57 56 55 55 54 54 54 53 52 51 50 48 47 46 44 44 43 38 39 39 39 48 56 55 54 54 54 54 53 50 49 49 47 40 40 40 40 40 42 42 65 69 68 65 62 59 61 62 62 63 62 62 62 62 62
60 61 62 61 61 60 59 57 57 56 56 55 54 52 52 52 52 51 51 49 47 47 46 44 43 39 39 39 39 42 51 51 52 50 49 46 46 45 45 45 45 40 39 40 41 41 43 43 53 67 66 65 63 60 59 62 60 55 62 60 60 60 61
61 60 61 61 60 59 60 59 57 56 57 56 54 52 51 51 51 50 50 50 49 47 47 45 43 41 39 39 39 39 43 45 46 47 45 43 43 43 43 42 42 40 39 40 40 42 43 44 46 52 50 45 45 48 60 61 62 63 62 62 62 61 61
60 60 60 61 60 59 60 59 58 56 56 55 55 53 51 51 50 49 49 49 49 48 47 46 42 43 41 39 39 39 38 40 40 45 44 42 42 42 44 43 42 40 39 39 40 41 43 43 46 48 44 45 45 46 52 61 61 61 61 62 61 60 60
60 60 60 60 59 59 58 58 58 56 55 54 54 53 52 51 50 47 46 46 46 47 47 47 45 42 42 40 40 39 39 39 39 41 42 40 41 41 42 42 41 39 39 40 39 40 40 41 42 40 42 43 46 47 54 55 56 57 55 58 57 56 56
MSLP
1015.49 1015.53 1015.21 1015.01 1014.77 1014.73 1014.73 1014.69 1014.53 1014.45 1014.41 1014.37 1014.37 1014.37 1014.41 1014.69 1015.01 1015.29 1015.37 1015.49 1015.69 1015.77 1016.05 1016.13 1016.05 1016.05 1016.17 1016.09 1015.89 1016.05 1015.93 1015.57 1015.85 1016.17 1016.57 1016.77 1017.53 1017.49 1017.17 1017.49 1017.61 1017.41 1017.17 1017.69 1017.81 1018.61 1018.77 1019.69 1019.61 1018.69 1018.09 1018.17 1018.49 1018.65 1018.69 1018.69 1018.37 1018.61 1018.73 1018.81 1018.77 1018.85 1018.97
1015.25 1015.13 1014.85 1014.73 1014.81 1014.69 1014.85 1014.61 1014.53 1014.33 1014.17 1014.09 1014.01 1014.05 1014.09 1014.33 1014.65 1014.97 1015.17 1015.37 1015.41 1015.45 1015.69 1015.85 1015.69 1015.73 1015.97 1016.01 1015.93 1016.09 1016.05 1015.73 1015.77 1015.93 1016.17 1016.81 1017.05 1017.25 1017.45 1017.85 1017.65 1017.49 1017.29 1017.33 1017.49 1017.69 1018.97 1018.45 1019.09 1019.09 1018.85 1018.37 1018.33 1018.53 1018.69 1018.65 1018.77 1018.61 1018.73 1018.77 1018.69 1018.49 1018.65
1015.41 1015.13 1014.97 1014.85 1014.77 1014.61 1014.69 1014.53 1014.41 1014.21 1014.05 1013.93 1013.97 1013.93 1013.97 1013.97 1014.13 1014.33 1014.61 1014.85 1014.97 1015.01 1015.17 1015.33 1015.29 1015.49 1015.69 1015.77 1015.81 1016.17 1016.29 1016.53 1016.05 1015.97 1015.97 1016.73 1016.89 1016.61 1016.85 1017.21 1017.81 1017.73 1017.49 1017.65 1017.73 1017.77 1017.33 1017.89 1017.97 1017.93 1018.25 1018.85 1019.41 1018.73 1018.45 1018.65 1018.85 1018.33 1018.41 1018.61 1018.33 1018.17 1018.49
1015.65 1015.53 1015.37 1015.17 1014.89 1014.65 1014.61 1014.37 1014.13 1013.97 1013.89 1013.85 1013.73 1013.81 1013.81 1013.77 1013.85 1014.01 1014.29 1014.41 1014.57 1014.81 1015.01 1015.09 1014.97 1015.09 1015.33 1015.53 1015.69 1016.01 1016.41 1016.53 1016.41 1016.21 1016.25 1016.41 1015.93 1016.29 1016.61 1016.77 1016.97 1017.05 1017.45 1017.77 1017.69 1017.49 1017.29 1017.53 1017.77 1017.81 1017.93 1017.81 1018.33 1018.81 1018.49 1018.45 1018.53 1018.17 1018.09 1018.21 1018.25 1018.25 1018.29
1015.69 1015.61 1015.57 1015.37 1014.97 1014.73 1014.49 1014.37 1013.97 1013.81 1013.77 1013.73 1013.69 1013.69 1013.73 1013.65 1013.77 1013.89 1013.89 1014.09 1014.21 1014.33 1014.45 1014.33 1014.45 1014.65 1014.97 1015.21 1015.41 1015.61 1015.81 1016.05 1016.13 1016.29 1016.49 1016.65 1016.05 1016.09 1016.29 1016.25 1016.41 1016.49 1016.77 1017.25 1017.37 1017.13 1017.09 1016.73 1017.09 1017.57 1017.81 1017.57 1017.81 1017.97 1018.09 1018.37 1018.09 1017.93 1017.93 1017.81 1017.85 1018.01 1018.05
1015.61 1015.49 1015.29 1015.05 1014.77 1014.69 1014.41 1014.37 1014.33 1014.37 1013.89 1013.77 1013.69 1013.69 1013.57 1013.61 1013.69 1013.81 1013.81 1013.85 1013.89 1013.93 1014.05 1014.09 1014.09 1014.29 1014.57 1014.89 1015.01 1015.17 1015.45 1015.77 1015.93 1016.05 1016.49 1016.17 1015.97 1016.09 1016.09 1016.05 1016.25 1016.41 1016.65 1016.57 1016.73 1017.01 1016.81 1016.41 1016.49 1017.01 1017.17 1017.45 1018.05 1018.05 1017.69 1017.97 1018.57 1017.37 1017.13 1017.69 1017.61 1017.65 1017.81
1015.73 1015.49 1015.25 1015.01 1014.69 1014.53 1014.37 1014.41 1014.61 1014.69 1014.93 1014.25 1013.49 1013.57 1013.29 1013.29 1013.41 1013.41 1013.53 1013.61 1013.53 1013.57 1013.73 1013.85 1013.93 1014.01 1014.21 1014.45 1014.69 1014.85 1015.09 1015.37 1015.77 1016.21 1016.13 1015.81 1015.85 1015.77 1015.77 1015.93 1015.97 1016.21 1016.33 1016.57 1017.09 1017.13 1016.53 1016.37 1016.77 1016.69 1016.65 1016.65 1016.89 1018.13 1017.77 1017.65 1017.61 1018.05 1017.49 1017.29 1017.29 1017.29 1017.57
1015.93 1015.65 1015.37 1015.01 1014.73 1014.53 1014.69 1014.45 1014.41 1014.49 1014.29 1014.37 1013.77 1013.09 1012.97 1013.01 1013.05 1013.17 1013.21 1013.25 1013.37 1013.37 1013.41 1013.65 1013.81 1013.89 1014.05 1014.17 1014.25 1014.49 1014.69 1015.05 1015.61 1015.85 1015.89 1015.81 1015.73 1015.57 1015.65 1015.69 1015.85 1016.01 1016.17 1016.45 1016.81 1016.25 1015.77 1015.73 1015.97 1015.93 1016.41 1017.69 1017.21 1017.57 1018.29 1017.65 1017.81 1017.85 1017.69 1017.13 1017.01 1017.17 1017.37
1016.41 1016.05 1015.57 1015.13 1014.85 1014.61 1014.65 1014.65 1014.45 1014.29 1014.25 1014.05 1014.01 1014.09 1013.37 1012.97 1012.81 1012.93 1012.97 1012.97 1012.97 1013.09 1013.17 1013.41 1013.73 1013.97 1013.89 1013.93 1013.97 1014.13 1014.49 1014.53 1015.09 1015.29 1015.29 1015.21 1015.29 1015.33 1015.49 1015.57 1015.77 1015.93 1016.01 1016.33 1016.45 1016.45 1016.33 1015.53 1015.33 1015.45 1015.89 1016.37 1017.29 1017.93 1017.37 1017.49 1017.37 1017.37 1016.45 1017.21 1016.85 1016.97 1017.13
1016.73 1016.45 1016.05 1015.53 1015.13 1014.69 1014.49 1014.37 1014.29 1014.21 1014.17 1014.25 1013.89 1013.81 1013.53 1013.61 1012.93 1012.65 1012.73 1012.73 1012.81 1012.81 1012.85 1012.97 1013.13 1013.29 1013.41 1013.61 1013.69 1013.89 1014.13 1014.09 1014.21 1014.33 1014.53 1014.81 1015.05 1015.29 1015.57 1015.57 1015.53 1015.69 1015.77 1015.73 1016.09 1016.61 1016.09 1015.33 1015.45 1015.37 1015.45 1015.85 1016.09 1016.89 1017.73 1017.93 1017.53 1017.25 1016.81 1016.53 1017.29 1016.85 1016.97
1016.89 1016.53 1016.17 1015.81 1015.37 1015.05 1014.57 1014.25 1014.21 1014.09 1014.13 1014.05 1014.01 1013.69 1013.85 1013.85 1012.93 1012.33 1012.53 1012.57 1012.53 1012.57 1012.65 1012.69 1012.81 1012.93 1013.17 1013.49 1013.53 1013.65 1013.61 1013.61 1013.77 1013.97 1014.25 1014.61 1015.01 1015.25 1015.33 1015.29 1015.29 1015.53 1015.49 1015.65 1015.77 1015.81 1015.49 1015.41 1015.25 1015.25 1015.61 1015.69 1015.49 1016.37 1016.77 1017.33 1017.29 1016.65 1017.01 1016.33 1016.61 1017.01 1016.77
1016.85 1016.61 1016.41 1016.13 1015.81 1015.45 1014.97 1014.65 1014.57 1014.53 1014.25 1014.13 1014.05 1013.85 1013.65 1013.33 1012.53 1012.29 1012.25 1012.37 1012.45 1012.49 1012.49 1012.49 1012.65 1012.85 1013.13 1013.57 1013.77 1013.93 1013.61 1013.57 1013.73 1013.93 1014.05 1014.29 1014.49 1014.93 1015.25 1015.21 1015.09 1015.37 1015.45 1015.57 1015.45 1015.73 1015.49 1015.29 1015.17 1015.33 1015.69 1015.41 1015.45 1016.01 1016.37 1016.57 1017.89 1016.93 1015.69 1016.69 1016.41 1016.21 1016.69
1016.93 1016.69 1016.49 1016.33 1016.13 1015.77 1015.33 1015.05 1014.69 1014.45 1014.37 1014.13 1014.09 1013.97 1013.77 1012.69 1012.53 1012.81 1012.33 1012.13 1012.25 1012.25 1012.33 1012.41 1012.61 1012.81 1012.85 1013.05 1013.37 1013.61 1013.05 1013.29 1013.33 1013.57 1013.77 1013.85 1014.01 1014.29 1014.65 1014.93 1015.25 1015.65 1015.41 1015.41 1015.77 1015.69 1015.05 1014.77 1014.89 1015.05 1015.29 1015.37 1015.41 1015.69 1016.33 1016.97 1017.37 1017.65 1016.37 1016.29 1016.25 1016.57 1016.57
1016.97 1016.85 1016.73 1016.53 1016.25 1015.93 1015.65 1015.33 1015.01 1014.69 1014.17 1013.89 1013.61 1013.29 1013.17 1012.57 1012.13 1012.01 1012.09 1011.89 1011.89 1011.97 1012.09 1012.29 1012.25 1012.49 1012.81 1012.93 1013.01 1013.21 1012.77 1012.65 1012.81 1012.97 1013.05 1013.37 1013.61 1013.85 1014.25 1014.65 1015.13 1015.01 1014.81 1015.21 1014.77 1014.97 1015.01 1014.61 1014.77 1014.97 1015.05 1015.29 1015.53 1015.73 1016.33 1016.85 1017.89 1017.41 1016.45 1016.09 1016.21 1016.41 1016.65
1016.93 1016.93 1016.85 1016.61 1016.37 1016.13 1015.85 1015.49 1015.05 1014.65 1014.37 1013.89 1013.29 1013.01 1012.65 1012.57 1012.29 1012.21 1012.01 1012.25 1011.89 1011.65 1011.85 1011.93 1011.97 1012.21 1012.33 1012.53 1012.69 1012.69 1012.57 1012.53 1012.81 1012.73 1012.89 1013.05 1013.33 1013.53 1013.77 1014.29 1014.45 1014.49 1014.49 1014.69 1014.65 1014.57 1014.49 1014.53 1014.49 1014.77 1014.81 1015.09 1015.29 1015.53 1015.69 1015.69 1016.13 1016.61 1016.65 1016.33 1016.49 1015.93 1016.69
1017.09 1016.97 1016.85 1016.65 1016.45 1016.25 1015.93 1015.53 1015.05 1014.77 1014.45 1014.01 1013.53 1013.01 1012.73 1012.57 1012.33 1012.25 1012.41 1012.05 1012.33 1012.61 1012.05 1011.93 1011.73 1011.77 1012.09 1012.13 1012.29 1012.33 1012.29 1012.33 1012.61 1012.81 1012.89 1012.93 1012.97 1013.09 1013.37 1013.57 1013.89 1014.13 1014.45 1014.77 1014.73 1014.61 1014.29 1014.29 1014.25 1014.33 1014.49 1014.65 1015.09 1015.33 1015.21 1015.33 1015.81 1016.29 1016.25 1016.57 1016.17 1016.21 1016.05
1017.21 1016.89 1016.85 1016.69 1016.53 1016.29 1015.89 1015.53 1015.09 1014.77 1014.45 1014.05 1013.69 1013.25 1012.77 1012.57 1012.45 1012.33 1012.09 1011.93 1011.97 1011.97 1012.01 1011.97 1011.77 1011.65 1011.61 1012.05 1012.13 1012.05 1011.93 1012.01 1012.49 1012.57 1012.33 1012.49 1012.73 1012.77 1012.77 1013.05 1013.29 1013.65 1014.17 1014.85 1014.81 1014.49 1013.93 1013.97 1014.41 1014.49 1014.49 1014.45 1014.81 1015.17 1015.01 1014.93 1015.17 1015.89 1015.89 1016.17 1015.89 1015.85 1015.81
1017.65 1017.21 1016.97 1016.81 1016.61 1016.21 1015.93 1015.65 1015.33 1015.01 1014.61 1014.21 1013.77 1013.33 1012.85 1012.49 1012.61 1012.37 1012.05 1012.09 1011.85 1011.65 1011.85 1012.21 1012.37 1012.25 1011.81 1011.77 1011.93 1011.77 1011.77 1011.69 1012.01 1012.09 1012.05 1012.25 1012.29 1012.41 1012.33 1012.45 1012.61 1013.01 1013.61 1014.21 1014.49 1014.25 1013.69 1013.69 1013.89 1014.33 1014.61 1014.57 1014.89 1014.97 1014.81 1014.61 1014.77 1015.25 1015.81 1015.81 1015.69 1015.21 1015.25
1017.57 1017.37 1017.17 1016.93 1016.61 1016.29 1016.01 1015.85 1015.57 1015.13 1014.77 1014.49 1014.13 1013.69 1013.17 1012.73 1012.61 1012.53 1012.33 1012.17 1012.01 1011.73 1011.53 1011.77 1012.09 1012.17 1011.97 1011.85 1011.97 1011.65 1011.09 1011.09 1011.25 1011.65 1012.21 1012.25 1012.21 1011.93 1011.89 1012.01 1012.37 1012.73 1013.05 1013.45 1013.77 1013.61 1013.53 1013.41 1013.53 1013.81 1014.21 1014.57 1014.89 1014.25 1014.37 1014.49 1014.37 1014.65 1015.09 1015.49 1015.45 1015.57 1015.41
1018.01 1017.73 1017.45 1017.09 1016.85 1016.61 1016.33 1016.05 1015.77 1015.45 1015.05 1014.77 1014.37 1014.13 1013.85 1013.37 1012.69 1012.45 1012.29 1012.29 1012.57 1012.21 1011.61 1011.45 1011.61 1011.61 1011.69 1011.85 1011.65 1010.77 1010.81 1010.69 1010.89 1011.25 1011.57 1012.13 1012.05 1011.97 1011.69 1011.73 1012.01 1012.21 1012.29 1012.45 1013.21 1013.41 1013.21 1013.37 1013.49 1013.53 1013.65 1013.89 1014.13 1013.81 1014.21 1014.45 1014.25 1014.69 1015.09 1015.53 1015.29 1015.29 1015.37
1018.29 1018.09 1017.73 1017.41 1017.21 1016.93 1016.57 1016.25 1016.09 1015.77 1015.45 1015.09 1014.73 1014.49 1014.25 1013.97 1013.61 1012.89 1012.33 1012.37 1012.41 1012.21 1011.77 1011.45 1011.13 1011.05 1011.13 1011.25 1011.41 1011.17 1010.89 1010.69 1010.77 1010.81 1011.17 1011.33 1011.53 1011.61 1011.57 1011.65 1011.73 1011.81 1011.77 1011.85 1012.29 1012.65 1013.49 1014.01 1013.45 1013.61 1013.57 1013.93 1014.13 1014.45 1014.13 1014.41 1015.17 1014.85 1014.77 1015.29 1015.17 1015.41 1015.13
1018.61 1018.33 1018.09 1017.73 1017.41 1017.13 1016.89 1016.65 1016.33 1016.05 1015.85 1015.53 1015.21 1014.89 1014.57 1014.29 1014.01 1013.77 1013.21 1012.53 1012.17 1012.05 1011.81 1011.37 1011.33 1011.33 1011.25 1011.05 1010.89 1010.93 1010.93 1011.01 1010.93 1010.85 1011.21 1011.29 1011.57 1011.21 1011.25 1011.41 1011.65 1011.77 1011.77 1011.85 1012.09 1012.49 1012.97 1013.13 1013.37 1013.77 1013.69 1013.69 1014.25 1014.69 1014.61 1015.01 1015.61 1015.53 1014.85 1014.81 1016.29 1015.53 1015.09
1018.93 1018.61 1018.33 1018.01 1017.81 1017.45 1017.09 1016.93 1016.73 1016.45 1016.21 1015.97 1015.69 1015.33 1015.05 1014.73 1014.49 1014.29 1013.97 1013.37 1012.61 1012.01 1011.69 1011.33 1011.05 1011.09 1011.09 1011.09 1010.93 1010.85 1010.85 1010.85 1010.69 1010.45 1010.41 1010.41 1010.57 1010.85 1010.97 1011.21 1011.49 1011.73 1011.85 1012.01 1012.17 1012.45 1012.69 1012.93 1013.05 1013.37 1013.65 1013.85 1014.13 1014.37 1014.73 1015.05 1015.37 1015.41 1015.69 1015.77 1016.21 1016.09 1016.17
1019.29 1018.97 1018.65 1018.37 1018.17 1017.81 1017.49 1017.25 1017.17 1016.93 1016.65 1016.41 1016.13 1015.89 1015.61 1015.33 1015.05 1014.73 1014.45 1014.05 1013.57 1012.73 1011.93 1011.41 1011.13 1011.01 1011.05 1011.05 1010.93 1010.77 1011.01 1011.01 1010.93 1010.93 1010.93 1011.45 1010.65 1010.85 1010.85 1011.05 1011.45 1011.65 1011.85 1012.01 1012.25 1012.45 1012.61 1012.89 1013.09 1013.33 1013.45 1013.41 1013.49 1013.69 1014.21 1014.65 1014.77 1015.01 1015.17 1015.81 1016.33 1016.57 1016.49
1019.57 1019.29 1018.97 1018.77 1018.53 1018.21 1017.93 1017.73 1017.57 1017.37 1017.13 1016.81 1016.53 1016.25 1016.09 1015.89 1015.57 1015.37 1015.09 1014.69 1014.01 1013.37 1012.73 1012.53 1012.49 1012.09 1011.57 1011.21 1011.05 1010.93 1010.69 1010.73 1010.77 1010.69 1010.69 1010.85 1010.93 1010.61 1010.69 1010.97 1011.41 1011.73 1011.89 1012.09 1012.17 1012.53 1012.73 1012.93 1013.17 1013.41 1013.53 1013.65 1013.77 1013.93 1014.05 1014.09 1014.45 1015.01 1015.21 1015.57 1015.89 1015.85 1015.97
1019.93 1019.61 1019.37 1019.09 1018.89 1018.61 1018.45 1018.21 1017.97 1017.77 1017.53 1017.25 1017.01 1016.73 1016.57 1016.37 1016.09 1015.85 1015.65 1015.25 1014.77 1014.05 1013.29 1013.37 1013.13 1013.01 1012.61 1012.29 1011.93 1011.53 1010.77 1010.57 1010.69 1010.77 1010.73 1010.73 1010.65 1010.81 1010.85 1011.13 1011.53 1011.69 1011.85 1012.21 1012.05 1011.89 1012.37 1013.13 1013.33 1013.49 1013.61 1013.89 1014.17 1014.09 1014.13 1014.25 1014.21 1014.21 1014.21 1014.69 1014.89 1015.21 1015.29
1020.33 1019.97 1019.65 1019.33 1019.05 1019.01 1018.81 1018.69 1018.45 1018.21 1017.89 1017.53 1017.41 1017.21 1016.93 1016.77 1016.53 1016.25 1016.01 1015.69 1015.29 1014.85 1014.05 1013.93 1013.77 1013.45 1013.13 1012.65 1012.25 1012.13 1011.37 1010.73 1010.69 1010.81 1010.77 1010.85 1010.85 1011.01 1011.17 1011.25 1011.41 1011.65 1012.25 1012.41 1011.97 1011.73 1011.81 1012.25 1012.97 1013.45 1013.57 1013.53 1013.81 1014.49 1014.45 1014.45 1014.49 1014.41 1014.29 1014.25 1014.57 1014.89 1014.93
1020.73 1020.37 1020.01 1019.69 1019.45 1019.29 1019.13 1018.97 1018.81 1018.53 1018.17 1017.97 1017.77 1017.57 1017.33 1017.09 1016.89 1016.69 1016.41 1016.05 1015.69 1015.33 1014.81 1014.57 1014.45 1014.09 1013.57 1013.09 1012.53 1012.29 1011.57 1011.01 1010.73 1010.77 1010.77 1010.77 1010.89 1010.77 1010.81 1010.97 1011.13 1011.57 1011.93 1011.97 1011.73 1011.37 1011.37 1011.85 1012.25 1012.53 1012.81 1013.13 1013.37 1013.77 1014.05 1014.33 1014.41 1014.37 1014.33 1014.25 1014.37 1014.57 1014.65
1021.05 1020.69 1020.37 1020.13 1019.93 1019.73 1019.53 1019.29 1019.09 1018.89 1018.61 1018.29 1018.09 1017.89 1017.73 1017.45 1017.21 1017.01 1016.81 1016.49 1016.13 1015.73 1015.17 1014.89 1014.73 1014.45 1013.97 1013.25 1012.77 1012.17 1011.37 1010.85 1010.45 1010.41 1010.41 1010.33 1010.57 1010.49 1010.57 1011.09 1011.61 1011.65 1011.65 1011.61 1011.85 1011.77 1011.45 1011.73 1012.05 1012.29 1012.69 1013.05 1013.85 1014.33 1014.97 1015.57 1015.49 1015.41 1014.69 1014.25 1014.25 1014.53 1014.97
1021.29 1021.05 1020.69 1020.41 1020.21 1020.13 1020.01 1019.77 1019.61 1019.33 1018.97 1018.61 1018.41 1018.25 1018.05 1017.73 1017.57 1017.37 1017.17 1016.89 1016.61 1016.25 1015.69 1015.25 1015.17 1014.89 1014.21 1013.41 1012.85 1011.85 1011.17 1010.65 1010.17 1009.93 1009.93 1010.17 1010.25 1010.53 1010.81 1010.73 1011.17 1011.37 1011.09 1011.01 1011.21 1011.49 1011.61 1011.65 1012.05 1012.65 1012.97 1013.25 1013.49 1014.05 1014.73 1015.33 1015.65 1015.61 1015.13 1014.93 1015.01 1015.29 1015.45
1021.37 1021.21 1020.89 1020.65 1020.53 1020.29 1020.17 1020.09 1019.97 1019.73 1019.45 1018.97 1018.73 1018.61 1018.41 1018.01 1017.81 1017.73 1017.61 1017.29 1017.09 1016.81 1016.29 1015.77 1015.57 1015.17 1014.45 1013.49 1013.09 1012.37 1011.53 1010.89 1010.09 1009.93 1009.93 1010.37 1010.81 1011.17 1011.45 1011.45 1011.01 1011.17 1011.53 1011.25 1011.09 1011.21 1011.69 1011.61 1011.77 1012.57 1012.61 1012.85 1013.61 1014.33 1015.05 1015.33 1015.61 1015.93 1015.77 1015.53 1015.61 1015.61 1015.65
1021.49 1021.29 1021.05 1020.85 1020.65 1020.49 1020.33 1020.17 1019.97 1019.81 1019.73 1019.49 1019.29 1018.93 1018.77 1018.33 1018.17 1018.05 1018.01 1017.85 1017.49 1017.17 1016.77 1016.21 1015.89 1015.53 1014.73 1013.69 1012.97 1012.17 1011.53 1010.77 1010.09 1010.09 1010.17 1010.49 1010.77 1011.05 1011.45 1011.77 1012.05 1011.57 1011.53 1011.49 1011.25 1011.09 1011.29 1011.33 1011.29 1011.61 1011.89 1012.65 1013.45 1014.29 1014.69 1014.93 1015.21 1015.41 1015.45 1015.61 1015.73 1015.77 1015.89
1021.65 1021.37 1021.13 1020.81 1020.57 1020.57 1020.45 1020.21 1020.09 1019.85 1019.81 1019.73 1019.61 1019.41 1019.17 1018.89 1018.57 1018.25 1018.21 1018.17 1017.89 1017.61 1017.29 1016.81 1016.41 1015.97 1015.21 1014.21 1013.25 1012.33 1011.45 1011.05 1010.85 1010.93 1010.97 1010.85 1011.25 1011.89 1012.13 1012.21 1012.37 1012.45 1012.09 1011.93 1011.57 1011.25 1011.25 1011.57 1011.45 1011.61 1012.01 1012.57 1013.29 1014.17 1014.53 1014.61 1014.77 1014.89 1015.17 1015.25 1015.49 1015.65 1015.77
1021.81 1021.53 1021.21 1020.97 1020.65 1020.53 1020.53 1020.45 1020.29 1020.05 1019.77 1019.65 1019.69 1019.77 1019.69 1019.37 1018.97 1018.69 1018.45 1018.45 1018.29 1017.97 1017.73 1017.41 1016.93 1016.53 1015.85 1014.97 1014.05 1013.33 1012.49 1011.93 1011.69 1011.81 1012.09 1012.45 1012.73 1013.01 1013.17 1013.13 1013.05 1013.09 1012.49 1012.29 1011.77 1011.37 1011.45 1011.57 1011.41 1011.65 1012.05 1012.57 1013.29 1013.89 1014.17 1014.57 1014.89 1014.97 1015.25 1015.65 1015.85 1016.01 1016.13
1022.09 1021.81 1021.53 1021.29 1021.09 1020.73 1020.57 1020.61 1020.57 1020.45 1020.01 1019.73 1019.69 1019.85 1019.97 1019.77 1019.49 1019.25 1018.85 1018.61 1018.41 1018.29 1018.05 1017.81 1017.49 1017.01 1016.61 1015.93 1015.25 1014.65 1014.21 1013.81 1013.29 1012.77 1013.01 1013.41 1013.53 1013.85 1014.13 1014.13 1014.01 1013.73 1013.09 1012.61 1012.13 1011.89 1011.97 1012.09 1012.29 1012.77 1013.37 1013.49 1013.89 1014.13 1014.49 1014.85 1015.09 1015.25 1015.41 1015.53 1015.69 1015.93 1016.13
1022.29 1022.01 1021.77 1021.53 1021.25 1021.05 1020.89 1020.73 1020.77 1020.69 1020.41 1020.01 1019.81 1019.89 1020.01 1020.01 1019.93 1019.85 1019.57 1019.29 1018.97 1018.69 1018.49 1018.17 1018.01 1017.61 1017.21 1016.81 1016.33 1015.89 1015.53 1015.09 1014.73 1014.33 1013.65 1013.61 1013.93 1014.45 1014.61 1014.69 1014.65 1014.49 1014.13 1013.61 1013.01 1012.89 1012.93 1013.09 1013.29 1013.57 1013.61 1014.01 1014.53 1014.77 1014.93 1015.13 1015.29 1015.37 1015.53 1015.69 1015.85 1016.05 1016.33
1022.45 1022.33 1022.13 1021.93 1021.73 1021.45 1021.25 1021.13 1020.93 1020.97 1020.93 1020.69 1020.33 1020.13 1020.09 1020.13 1020.21 1020.33 1020.33 1020.17 1019.77 1019.49 1019.25 1018.89 1018.45 1018.13 1017.77 1017.49 1017.09 1016.81 1016.49 1015.93 1015.73 1016.17 1015.37 1014.57 1014.61 1014.93 1015.29 1015.45 1015.25 1015.05 1014.65 1014.33 1014.01 1013.85 1014.05 1014.25 1014.49 1014.41 1014.37 1014.65 1014.93 1015.25 1015.49 1015.65 1015.77 1015.81 1015.85 1016.01 1016.37 1016.81 1017.09
Wind_Speed
4 4 4 5 5 5 7 8 7 6 8 9 9 10 10 9 6 6 7 7 7 6 9 9 11 9 6 6 8 11 10 9 8 8 8 7 8 7 8 9 7 6 6 6 7 7 7 8 9 8 8 8 8 8 5 7 8 7 6 6 6 7 5
5 5 4 4 5 6 7 7 7 7 7 8 9 10 10 10 9 9 9 10 9 8 9 10 11 10 9 8 10 8 9 7 7 7 7 7 8 8 7 8 8 8 8 7 8 8 8 9 7 9 8 8 7 7 7 7 5 6 7 6 8 7 6
5 5 6 6 6 6 7 8 8 7 7 7 7 8 9 9 10 10 9 10 8 9 9 12 12 11 10 9 7 9 5 7 6 7 8 6 9 8 8 6 6 9 7 7 7 9 7 5 5 8 8 9 9 8 7 7 7 8 7 7 6 5 6
8 7 8 7 7 7 8 8 7 7 6 6 6 6 8 9 9 9 9 9 7 7 8 9 10 10 11 10 7 7 8 10 6 6 4 9 9 8 8 9 10 9 7 8 8 8 7 8 5 6 8 10 9 9 8 8 8 11 9 7 7 7 6
8 8 8 9 9 9 9 9 8 7 6 6 6 6 6 7 7 7 9 8 8 7 8 10 10 8 7 9 8 7 7 8 8 7 7 11 8 7 8 9 9 6 6 7 8 8 7 7 7 6 7 7 8 7 7 7 11 9 10 9 9 8 7
8 8 9 9 9 9 8 9 8 8 7 6 6 6 7 7 7 7 7 8 9 10 8 9 11 10 9 10 11 10 10 9 9 8 11 11 8 8 8 7 6 5 6 6 4 4 8 5 5 7 8 10 8 7 9 10 8 9 9 9 8 9 8
10 9 9 10 9 8 8 7 6 7 7 9 6 7 7 6 7 8 8 8 9 9 10 11 13 13 12 11 11 10 10 10 7 10 11 9 8 8 7 7 7 7 5 3 7 8 9 7 7 8 6 7 8 8 6 8 7 8 9 9 9 8 7
9 10 10 10 9 9 9 8 6 7 7 7 10 6 7 7 7 7 8 8 8 9 10 10 10 10 11 10 10 10 7 7 10 10 8 8 9 10 8 7 6 6 6 3 8 9 8 9 8 7 6 7 7 8 8 9 11 13 10 9 11 8 9
10 9 10 11 10 9 7 8 7 7 7 6 8 10 8 7 7 7 8 9 9 9 10 11 12 10 13 11 8 7 8 7 10 13 11 10 8 8 7 7 7 7 6 8 8 5 8 9 7 5 6 8 8 8 8 8 9 10 11 10 9 10 10
11 11 11 13 13 11 9 8 7 7 7 5 6 9 8 8 8 8 8 9 9 10 11 11 11 11 10 11 10 8 9 11 11 11 9 8 6 5 5 9 9 7 7 6 5 9 9 4 7 4 5 7 8 8 8 8 8 9 11 11 9 10 9
10 11 11 13 13 12 10 9 8 8 7 6 6 5 8 11 10 8 8 9 9 10 10 10 11 12 10 7 9 9 10 9 10 9 9 8 7 6 6 9 8 9 7 6 7 7 6 6 6 6 4 7 8 8 8 9 7 8 8 10 9 9 11
10 9 10 11 12 13 13 12 11 10 8 9 8 8 9 12 9 8 9 9 9 10 10 11 9 7 6 8 9 9 12 10 9 9 8 9 8 8 10 11 9 7 5 8 8 5 9 9 8 5 6 8 7 5 6 5 3 8 8 10 8 8 10
10 11 10 11 11 12 13 13 14 10 9 6 7 12 12 11 6 9 11 9 10 10 11 9 7 8 10 9 8 11 11 12 12 12 10 9 10 11 12 10 9 11 11 6 10 14 12 10 8 7 7 5 6 7 5 3 5 3 2 4 8 9 10
11 10 12 12 11 11 12 12 12 12 11 10 10 10 11 12 10 9 9 10 10 10 10 11 10 8 8 10 9 12 12 12 12 11 10 12 9 10 11 9 12 13 9 12 11 9 10 11 10 6 5 5 5 5 9 7 9 8 6 3 4 8 8
11 11 12 11 11 12 12 12 12 13 12 13 13 12 11 10 9 11 9 10 11 10 11 11 11 12 10 8 12 10 11 8 10 10 10 10 10 9 10 11 12 9 9 8 10 11 11 10 10 11 10 8 8 7 9 11 8 6 9 6 7 9 11
12 13 13 11 12 12 12 12 12 11 12 12 13 13 12 11 10 7 8 11 5 10 9 9 10 11 12 13 12 12 10 13 9 8 10 12 14 14 14 13 13 9 7 8 12 11 11 10 10 11 11 8 7 7 11 7 6 7 9 8 8 9 9
13 13 13 12 13 13 12 12 12 12 13 12 13 13 14 12 11 9 8 10 9 6 8 10 8 9 10 10 13 13 12 10 10 14 13 13 14 15 14 13 12 10 10 14 14 10 11 9 8 7 8 8 8 11 10 8 9 8 7 9 10 11 11
13 14 14 12 14 14 13 13 11 13 13 13 13 13 13 11 8 13 10 10 12 10 8 9 11 12 9 6 10 11 13 13 12 15 12 13 11 13 15 15 12 10 10 10 9 13 12 12 10 8 8 6 7 9 10 9 10 10 8 10 9 8 9
14 14 14 14 14 13 13 13 14 12 13 14 14 15 15 12 11 12 13 12 11 11 8 8 8 10 12 11 14 15 13 10 11 9 10 9 13 15 12 13 10 9 10 10 11 12 12 13 11 10 11 11 13 9 6 7 9 8 10 10 9 9 10
13 14 14 14 13 13 14 13 14 14 13 14 13 13 14 17 14 11 10 8 9 11 10 10 8 8 7 9 13 13 12 10 6 7 8 14 11 10 12 11 11 12 13 14 13 14 12 10 11 11 10 10 13 8 7 6 9 11 11 10 10 9 9
14 13 13 13 14 14 14 13 14 13 14 15 14 15 14 14 15 16 13 7 7 10 11 11 11 11 9 7 9 9 12 8 8 9 6 9 8 10 10 9 8 10 11 9 9 7 5 6 4 6 7 3 4 3 7 6 6 9 8 9 10 8 8
13 13 14 14 14 14 14 14 14 14 14 14 12 14 15 15 15 15 16 13 9 9 10 9 8 7 7 9 9 11 11 11 12 13 13 12 12 13 9 8 9 9 10 8 8 6 5 2 3 6 6 3 4 2 1 3 4 6 8 8 2 6 10
13 14 14 14 15 15 15 15 14 15 15 15 15 14 15 15 14 14 14 16 14 8 7 9 9 9 7 6 7 10 6 6 9 8 7 10 11 9 9 8 8 12 13 9 11 11 11 9 7 4 7 6 5 5 4 7 9 8 1 3 8 7 5
14 14 14 14 15 16 16 15 15 15 15 15 15 15 15 15 15 14 15 14 14 14 10 8 12 12 11 11 8 7 8 8 5 7 7 11 10 8 10 9 5 6 9 9 11 13 10 10 10 3 6 4 5 7 7 7 6 3 5 2 5 1 5
14 14 14 15 15 15 15 16 16 15 15 16 15 15 15 15 14 14 13 14 14 12 12 20 21 21 18 15 10 8 8 6 9 8 9 10 10 9 8 7 5 4 5 8 10 11 10 10 11 8 8 8 7 6 5 2 5 5 5 6 7 8 8
14 14 14 15 14 14 15 16 16 16 16 16 15 15 15 16 15 14 13 14 14 14 11 16 21 22 21 19 16 10 8 9 8 8 5 6 6 4 4 4 7 7 9 14 13 11 10 8 9 11 10 9 7 7 7 7 8 1 6 6 7 9 9
14 14 15 15 15 15 15 15 16 14 15 15 15 15 15 16 15 15 15 14 14 13 12 15 21 23 23 21 17 10 8 12 8 8 7 8 7 7 9 5 7 9 7 13 9 10 11 10 9 8 8 8 6 7 7 6 4 3 2 4 5 7 8
14 14 15 15 15 15 16 15 16 14 14 15 15 15 15 15 14 14 15 15 14 13 11 17 19 22 23 21 18 12 8 8 7 6 9 9 10 11 6 6 9 8 10 11 10 9 10 10 9 8 8 9 6 5 3 2 1 2 4 1 2 4 6
14 14 14 14 14 15 15 16 17 15 14 14 14 14 14 14 15 15 15 15 14 15 13 17 20 22 23 22 18 8 8 9 9 10 11 10 9 7 5 3 2 5 6 8 8 6 3 4 9 10 10 8 8 6 6 4 4 5 3 6 4 3 6
13 14 14 15 15 15 14 15 14 14 15 15 15 15 15 14 14 15 16 15 15 15 14 17 20 22 22 23 15 8 9 9 10 11 8 5 6 2 3 5 9 5 4 6 13 15 9 9 10 8 8 9 7 7 5 5 8 8 10 14 15 14 13
13 13 13 14 14 14 14 12 12 12 14 15 15 15 14 14 15 15 16 17 17 15 15 17 20 23 21 21 16 9 7 9 11 7 5 5 6 8 7 12 1 7 4 1 11 17 16 13 9 9 11 12 9 7 6 5 5 5 10 13 13 14 14
13 13 14 13 13 14 13 13 13 12 12 13 14 14 14 14 15 14 15 16 21 19 16 16 21 24 22 21 15 8 7 8 6 2 4 6 7 7 6 10 13 6 4 5 9 11 9 6 5 7 8 9 9 8 8 8 8 9 8 8 8 8 9
13 13 13 14 14 13 12 12 14 13 12 11 12 13 14 14 16 14 15 16 16 18 19 16 19 25 23 22 23 13 4 4 4 6 6 6 8 8 8 7 9 11 11 8 9 11 10 7 1 7 7 7 9 9 9 9 8 8 9 8 8 8 9
14 14 14 13 13 13 12 12 13 14 13 12 12 12 13 13 14 15 15 15 15 16 17 21 20 26 25 24 25 19 7 6 5 5 7 8 8 7 7 7 5 10 11 10 11 13 13 12 8 6 4 6 8 10 10 8 7 9 9 9 9 8 7
12 12 13 13 13 13 13 13 12 13 12 12 14 14 14 13 12 13 13 15 14 14 16 20 19 22 25 25 25 27 14 12 10 6 9 7 7 7 7 6 6 8 12 13 15 16 18 18 19 12 13 17 17 15 10 9 8 8 8 7 7 7 7
12 11 12 13 14 14 14 14 13 13 14 13 14 14 14 14 13 13 13 13 14 15 14 14 19 18 21 24 25 24 24 18 20 11 6 9 9 8 6 6 6 11 15 15 17 19 18 19 14 13 20 19 16 14 9 6 7 7 7 7 7 8 8
11 11 13 13 13 14 14 14 14 13 13 13 13 13 13 13 13 13 12 12 13 14 15 14 17 20 18 22 21 23 22 23 22 12 11 10 9 9 9 8 7 12 15 17 19 20 19 16 13 15 15 15 15 12 8 7 5 5 5 6 7 8 8
Wind_Direction
302 303 293 282 277 267 265 268 260 251 249 251 249 245 245 237 208 212 231 227 219 200 216 229 228 223 216 214 220 243 226 211 204 210 183 184 184 207 211 217 219 238 228 208 240 206 199 186 194 205 192 186 179 200 207 219 222 178 199 204 175 190 165
300 299 295 285 273 271 270 264 265 265 255 247 254 258 253 243 226 218 221 237 225 208 209 223 222 220 215 208 215 236 233 214 213 215 196 178 196 215 193 226 230 229 217 231 234 220 224 208 193 190 188 184 196 196 197 207 238 179 205 202 201 196 169
310 299 298 289 283 276 269 267 268 259 261 262 248 253 259 248 244 236 226 225 213 222 203 212 221 217 214 216 208 224 244 263 233 217 214 191 218 206 193 199 211 227 226 236 237 239 232 231 208 193 173 174 193 195 186 201 213 211 190 197 209 198 177
307 307 299 296 290 286 279 277 270 265 256 265 258 245 254 254 247 237 228 222 214 218 214 215 217 217 212 206 196 208 214 215 233 226 245 227 203 194 197 202 212 213 213 215 223 229 224 210 164 203 187 194 191 190 190 196 205 204 197 185 201 193 185
305 301 297 291 288 285 285 284 280 272 260 255 252 256 252 247 240 240 236 224 210 200 202 202 217 210 198 201 203 193 198 204 223 221 211 226 209 210 209 214 220 218 204 222 224 229 233 226 196 193 198 189 189 193 191 181 224 195 205 186 195 187 187
303 294 289 292 289 286 287 290 300 296 265 241 254 258 259 249 244 238 233 230 225 217 207 212 207 206 200 204 203 197 195 200 213 218 218 215 204 209 213 214 218 219 234 242 260 263 232 234 238 204 187 180 194 194 191 180 204 207 197 191 199 185 185
315 304 297 295 297 295 297 304 312 293 294 283 258 256 254 247 242 235 233 229 226 220 216 214 212 210 209 208 199 200 194 199 207 221 223 205 207 210 223 225 215 219 238 239 231 213 226 204 217 217 203 190 184 174 186 199 183 201 195 194 203 185 186
325 317 313 307 300 302 309 306 295 305 302 299 284 262 250 247 240 238 233 228 227 225 215 213 214 213 216 217 207 204 192 187 210 200 214 196 209 209 214 223 219 219 224 233 255 235 228 214 214 208 200 176 197 168 185 191 194 197 196 181 197 175 185
332 322 315 315 312 306 300 300 307 300 296 305 310 298 287 275 245 244 240 238 229 226 220 218 220 225 222 213 205 182 194 186 214 200 205 197 200 198 212 226 229 226 217 208 228 267 245 225 219 214 212 207 191 195 195 193 197 204 188 183 189 181 186
333 329 322 320 322 315 306 302 298 293 291 293 284 291 284 259 260 239 242 235 232 226 225 223 225 226 221 217 211 194 200 201 199 197 203 203 194 196 219 235 228 220 218 223 214 223 250 233 231 199 227 216 208 207 199 202 206 195 188 195 184 185 166
332 330 327 325 326 322 310 304 304 291 287 279 280 275 286 284 265 244 243 238 233 230 227 228 227 224 220 221 222 211 212 200 201 199 197 191 192 180 226 242 232 229 213 219 222 228 239 243 236 207 206 227 223 220 204 208 200 197 191 193 190 186 183
337 331 329 328 325 321 319 319 308 304 305 303 291 272 261 261 266 260 245 241 233 232 230 228 223 225 221 227 234 229 220 205 198 199 195 185 181 168 209 226 225 232 204 216 233 236 225 219 216 187 216 220 219 225 248 238 200 216 207 184 191 184 183
344 339 336 332 325 321 318 325 325 316 299 280 258 267 273 265 252 269 263 243 242 235 233 223 218 221 227 221 223 232 218 210 202 201 197 186 189 183 198 206 219 224 217 213 212 217 218 211 215 213 203 213 212 205 222 223 261 205 265 183 174 179 195
354 345 340 333 329 326 326 324 322 322 315 296 278 276 273 279 270 264 265 257 249 251 238 233 216 204 217 228 221 230 227 209 209 207 205 198 185 191 197 201 220 224 219 217 216 214 224 218 210 211 206 211 228 215 215 185 218 196 194 169 214 169 186
0 349 341 337 334 334 328 324 319 316 313 314 306 290 282 278 285 281 287 284 279 258 247 244 232 222 214 219 231 223 231 204 224 216 206 202 190 190 193 195 214 215 217 226 229 219 210 213 209 211 212 213 218 229 231 220 202 201 182 157 195 197 174
353 354 346 344 339 335 329 325 322 315 310 308 306 305 297 289 282 291 286 280 274 275 272 253 246 231 225 222 221 223 220 219 201 214 207 207 208 205 201 200 199 197 208 219 236 229 219 207 212 212 212 207 216 235 228 204 182 196 191 182 191 198 191
353 348 354 346 342 337 332 328 326 324 318 310 303 298 299 300 294 276 266 269 275 276 271 274 267 262 239 225 229 225 219 220 217 218 210 205 209 209 207 204 199 190 201 221 214 228 221 199 199 211 217 212 208 219 232 209 178 188 200 195 194 201 187
354 346 353 348 341 339 339 334 332 328 322 317 312 305 298 298 297 289 279 277 275 272 275 272 254 252 258 263 259 228 218 216 217 222 215 218 213 217 211 210 201 187 183 219 208 221 219 206 201 199 218 228 234 224 216 199 206 178 194 202 197 204 194
350 350 350 348 345 344 343 338 334 329 329 326 325 319 311 305 301 291 282 282 280 274 266 268 259 234 245 240 224 231 223 213 224 216 219 239 232 214 208 209 199 197 199 208 212 217 219 210 206 205 207 211 221 209 220 210 209 206 195 203 202 201 187
352 350 350 347 348 347 344 341 339 334 332 328 327 327 328 322 310 294 288 289 297 296 288 278 269 269 264 249 258 239 231 221 209 227 211 220 219 223 208 204 199 204 209 207 204 217 214 213 213 217 223 213 222 178 199 200 210 198 200 200 207 206 204
352 353 349 350 351 348 344 344 343 339 336 334 334 335 332 331 331 321 313 295 279 268 267 267 267 259 253 254 266 280 249 225 228 231 237 231 217 215 200 196 202 214 218 213 205 195 166 226 259 249 228 262 309 218 205 195 225 228 213 194 200 199 210
351 355 353 352 352 351 350 347 343 342 341 337 337 337 336 339 339 336 332 319 293 275 274 270 265 256 262 254 244 247 251 241 230 232 220 223 218 219 197 184 196 206 213 198 154 141 154 141 211 228 226 166 150 94 324 348 315 290 237 200 72 238 202
356 355 355 356 354 352 352 353 348 346 345 342 341 340 341 342 343 342 335 331 320 287 270 277 275 276 255 254 260 255 260 290 260 238 232 223 208 203 201 195 190 194 217 173 145 149 153 162 171 255 227 177 178 176 167 185 207 220 261 304 175 213 219
358 359 357 359 355 355 356 354 351 349 347 346 343 344 345 344 344 341 339 335 330 326 313 282 280 280 287 273 254 255 243 223 237 251 245 247 226 195 212 199 173 204 212 187 161 159 183 180 172 183 64 109 154 174 185 187 206 152 185 129 91 95 312
1 1 1 0 359 358 356 357 354 351 350 348 348 346 347 347 345 347 341 337 332 331 331 354 340 333 314 294 276 261 256 214 223 237 233 221 234 216 209 192 157 183 210 226 202 169 183 172 153 152 140 126 123 82 50 202 183 182 194 181 166 176 199
3 4 3 1 360 0 359 358 357 354 352 350 348 350 349 347 348 346 345 342 336 335 331 358 353 353 349 339 315 292 258 247 236 232 221 239 235 261 262 144 176 181 201 222 212 183 163 153 142 140 131 125 110 117 103 57 19 300 186 178 167 175 192
1 2 2 1 3 2 0 359 359 355 352 352 351 350 348 349 349 347 348 343 337 337 324 357 352 348 344 335 327 316 269 257 234 219 232 236 246 233 225 207 201 202 197 218 213 207 176 158 159 157 165 169 145 100 93 112 107 32 326 202 192 204 187
1 360 0 0 1 1 1 2 359 357 357 357 355 353 351 350 350 350 349 345 343 337 333 347 351 346 340 334 327 317 288 279 246 210 229 227 228 219 199 218 217 219 205 210 204 198 167 171 169 177 183 193 177 160 151 100 69 199 193 188 151 220 202
3 2 2 2 359 359 359 0 0 359 356 358 360 358 357 356 354 353 351 349 347 339 336 344 350 345 337 333 326 303 282 262 247 228 233 225 219 217 192 182 310 195 205 221 154 184 162 195 182 180 189 154 115 93 62 40 7 322 321 214 213 74 59
6 3 3 1 3 3 359 358 359 357 357 0 0 3 1 3 1 359 357 355 353 345 341 344 349 343 335 332 324 302 285 268 249 235 222 256 232 100 41 166 191 253 217 188 162 155 189 201 193 173 189 143 149 103 93 71 52 50 76 83 86 96 95
10 4 4 3 3 2 2 2 359 356 358 358 3 3 360 2 5 5 2 0 1 352 348 345 351 344 337 336 325 293 282 270 245 228 134 92 100 85 49 29 38 184 250 159 144 146 176 192 179 187 180 153 128 118 112 119 103 71 77 82 85 90 90
11 7 8 8 4 3 4 2 4 2 359 359 1 2 1 3 5 7 6 3 3 3 356 350 355 348 344 347 343 293 295 271 232 119 89 86 69 79 58 45 28 33 154 101 94 87 54 13 185 170 152 150 138 138 137 137 129 125 117 101 95 95 97
9 10 9 5 11 11 3 3 3 5 5 4 359 0 2 1 4 6 10 10 11 12 7 360 0 356 354 359 360 342 323 343 30 43 32 48 71 52 44 33 28 27 58 66 76 71 64 30 243 149 146 146 139 129 137 139 140 137 128 124 112 101 99
7 9 9 7 9 13 12 6 3 3 5 8 13 7 4 1 4 6 9 13 13 15 18 16 12 7 4 8 13 8 350 20 42 59 58 53 40 43 32 27 28 14 47 55 67 66 63 54 62 109 100 117 116 124 123 105 80 88 106 106 115 113 102
10 8 9 8 7 7 13 14 7 3 2 5 11 14 11 7 3 5 6 9 12 14 13 16 16 15 13 16 21 24 18 11 9 82 71 63 55 47 34 19 18 20 45 57 62 69 71 74 78 80 87 88 83 87 100 109 121 127 122 119 110 106 105
14 10 12 8 8 11 11 13 13 6 4 4 10 13 13 12 10 6 6 7 10 13 14 14 14 14 14 18 23 29 30 27 12 8 39 76 63 57 46 43 40 44 53 52 66 68 70 73 75 90 93 90 87 83 89 96 98 106 107 106 104 101 95
22 14 15 14 12 11 14 12 13 14 9 6 6 11 13 13 11 12 7 6 10 14 14 15 12 12 13 15 21 25 28 35 34 27 30 52 55 55 45 40 51 62 68 67 63 65 64 65 70 69 71 78 84 84 95 84 70 66 71 87 76 66 68